Regional Weather Roundup
Issued by NWS State College, PA

Home | Current Version | Previous Version | Text Only | Print | Product List | Glossary Off
Versions: 1 2 3 4 5 6 7 8 9 10 11 12 13 14 15 16 17 18 19 20 21 22 23 24 25 26 27 28 29 30 31 32 33 34 35 36 37 38 39 40 41 42 43 44 45 46 47 48 49 50

000
ASUS41 KCTP 241803
RWRCTP

REGIONAL WEATHER ROUNDUP
NATIONAL WEATHER SERVICE STATE COLLEGE PA
200 PM EDT THU JUL 24 2014

Note: "fair" indicates few or no clouds below 12,000 feet with no
significant weather and/or obstructions to visibility.

* = STATION THAT DOES NOT REPORT PRECIPITATION /E.G. RAIN...SNOW...ETC/
    THUNDER OR FOG.

PAZ002>004-007>009-013>016-020>023-029>032-241900-
WESTERN PENNSYLVANIA

CITY           SKY/WX    TMP DP  RH WIND       PRES   REMARKS
ERIE           SUNNY     69  49  48 N8        30.08R
MEADVILLE      PTSUNNY   70  51  51 N7G18     30.07R
FRANKLIN*      PTSUNNY   70  50  49 N7        30.06S
NEW CASTLE       N/A     71  54  55 NE14G20   30.05S
BEAVER COUNTY  PTSUNNY   70  54  56 N8G16     30.04S
BUTLER*        PTSUNNY   72  54  53 N12G18    30.04F
PITTSBURGH INT MOSUNNY   73  53  49 N14       30.02F
PITTSBURGH     PTSUNNY   72  52  49 VRB6      30.01S
INDIANA*       PTSUNNY   73  52  46 N9        30.04F
LATROBE        MOSUNNY   73  55  53 NE12G18   30.01F
WASHINGTON CO* CLOUDY    72  55  56 N8        30.02F
$$

PAZ004>006-010>012-017>019-024>028-033>037-041-042-045-046-049>053-241900-
CENTRAL PENNSYLVANIA

CITY           SKY/WX    TMP DP  RH WIND       PRES   REMARKS
BRADFORD       PTSUNNY   69  49  48 N12       30.05S
DUBOIS         CLOUDY    69  53  56 N7        30.02F
CLEARFIELD     PTSUNNY   73  52  47 N9        30.01F
JOHNSTOWN      PTSUNNY   68  51  54 N9        30.02F
ALTOONA        PTSUNNY   73  53  49 N14G20    29.99F
STATE COLLEGE  PTSUNNY   72  54  53 N9        29.99F
WILLIAMSPORT   PTSUNNY   75  51  43 N10G18    29.96R
SELINSGROVE    PTSUNNY   78  57  48 N9        29.95F
FT INDIANTOWN  MOSUNNY   79  55  44 VRB6      29.92F
CAPITAL CITY   MOSUNNY   77  53  43 NW10      29.92F
HARRISBURG     PTSUNNY   77  54  44 N14G28    29.91F
YORK           PTSUNNY   75  57  53 NW9       29.93S
$$

PAZ038>040-043-044-047-048-054-055-060>062-067>071-241900-
EASTERN PENNSYLVANIA

CITY           SKY/WX    TMP DP  RH WIND       PRES   REMARKS
SCRANTON       PTSUNNY   76  49  38 N13G20    29.94F
MOUNT POCONO   PTSUNNY   71  51  49 N8G18     29.95F
ALLENTOWN      MOSUNNY   79  55  43 N10       29.89F
QUAKERTOWN*    PTCLDY    77  57  50 N7        29.90F
READING        MOSUNNY   78  56  46 N10       29.90F
LANCASTER      MOSUNNY   78  58  49 N6        29.91F
COATESVILLE    PTCLDY    77  57  50 N8        29.91F
POTTSTOWN      MOSUNNY   76  57  51 N13       29.90F
BLUE BELL      PTSUNNY   79  61  53 NE3       29.88F
DOYLESTOWN     PTSUNNY   80  58  46 N8        29.88F
WILLOW GROVE   NOT AVBL
NORTH PHILA    CLOUDY    80  57  45 NE10      29.90F
PHILADELPHIA   PTSUNNY   80  57  45 N13       29.88F
$$


USA.gov is the U.S. government's official web portal to all federal, state and local government web resources and services.